(182342) = 2001 QA7

Discovered at Socorro on 2001-08-16 by LINEAR.

Orbit

Orbit type: Main Belt

Note: WebGL enabled browser required.

epoch2023-09-13.0
epoch JD2460200.5
perihelion date2022-06-23.67121
perihelion JD2459754.17121
argument of perihelion (°)334.80457
ascending node (°)319.99338
inclination (°)6.74917
eccentricity0.1899758
perihelion distance (AU)2.1167002
Tisserand w.r.t. Jupiter3.4
ΔV w.r.t. Earth (km/sec)9.4
semimajor axis (AU)2.6131320
mean anomaly (°)104.13980
mean daily motion (°/day)0.23332530
aphelion distance (AU)3.110
period (years)4.22
P-vector [x]0.42131615
P-vector [y]-0.81090915
P-vector [z]-0.40610227
Q-vector [x]0.90376130
Q-vector [y]0.33810282
Q-vector [z]0.26249190
absolute magnitude16.24
phase slope0.15
uncertainty0
referenceMPEC 2024-B63
observations used529
oppositions17
arc length (days)9601
first opposition used1997
last opposition used2024
residual rms (arc-secs)0.67
perturbers coarse indicatorM-v
perturbers precise indicator003Ek
first observation date used1997-10-06.0
last observation date used2024-01-19.0
computer nameMPCLINUX
JD of orbit computation2456966.802571
perihelion JD uncertainty (days)1.0010E-04
argument of perihelion uncertainty (°)5.3524E-05
ascending node uncertainty (°)4.9714E-05
inclination uncertainty (°)7.1084E-06
eccentricity uncertainty 5.4314E-08
perihelion distance uncertainty (AU)1.4227E-07
Minimum Orbit Intersection Distances (in AU)
for orbit epoch: 2460200.5, reference: E2024-B63
Mercury1.6666
Venus1.38877
Earth1.10249
Mars0.69703
Jupiter2.1064
Saturn5.98221
Uranus15.4668
Neptune27.0186

Observations

543 total observations over interval: 1997 10 06.31458 – 2024 01 19.200796
These data are available for download (format description).

Date (UT) J2000 RA J2000 Dec Magn Location Ref
1997 10 06.31458 23 59 49.21 +09 18 08.4 19.0 V 691 – Steward Observatory, Kitt Peak-Spacewatch MPS 178251
1997 10 06.33592 23 59 48.07 +09 18 02.7 19.1 V 691 – Steward Observatory, Kitt Peak-Spacewatch MPS 178251
1997 10 06.35852 23 59 46.87 +09 17 57.0 19.1 V 691 – Steward Observatory, Kitt Peak-Spacewatch MPS 178251
2001 08 16.27381 22 11 50.90 -09 23 15.0 18.2   704 – Lincoln Laboratory ETS, New Mexico MPS 33490
2001 08 16.28610 22 11 50.18 -09 23 15.7 18.7   704 – Lincoln Laboratory ETS, New Mexico MPS 33490
2001 08 16.29847 22 11 49.45 -09 23 15.8 18.6   704 – Lincoln Laboratory ETS, New Mexico MPS 33490
2001 08 16.31072 22 11 48.76 -09 23 16.3 18.2   704 – Lincoln Laboratory ETS, New Mexico MPS 33490
2001 08 16.32294 22 11 48.00 -09 23 16.1 18.5   704 – Lincoln Laboratory ETS, New Mexico MPS 33490
2001 08 18.28552 22 09 56.79 -09 24 23.8 17.7   704 – Lincoln Laboratory ETS, New Mexico MPS 33490
2001 08 18.31038 22 09 55.34 -09 24 24.9 18.0   704 – Lincoln Laboratory ETS, New Mexico MPS 33490
2001 08 18.32291 22 09 54.62 -09 24 24.8 18.6   704 – Lincoln Laboratory ETS, New Mexico MPS 33490
2001 08 24.19139 22 04 19.37 -09 28 31.2 18.1 R 699 – Lowell Observatory-LONEOS MPS 33490
2001 08 24.21414 22 04 17.96 -09 28 31.5 18.1   644 – Palomar Mountain/NEAT MPS 33490
2001 08 24.21721 22 04 17.81 -09 28 33.2   699 – Lowell Observatory-LONEOS MPS 33490
2001 08 24.22633 22 04 17.25 -09 28 32.2 18.1   644 – Palomar Mountain/NEAT MPS 33490
2001 08 24.23724 22 04 16.60 -09 28 32.8 18.2   644 – Palomar Mountain/NEAT MPS 33490
2001 08 24.24318 22 04 16.29 -09 28 34.1   699 – Lowell Observatory-LONEOS MPS 33490
2001 08 24.26888 22 04 14.76 -09 28 35.1   699 – Lowell Observatory-LONEOS MPS 33490
2001 09 07.19168 21 52 07.76 -09 37 50.5 18.5   704 – Lincoln Laboratory ETS, New Mexico MPS 34582
2001 09 07.20551 21 52 07.08 -09 37 51.5 18.9   704 – Lincoln Laboratory ETS, New Mexico MPS 34582
2001 09 07.21934 21 52 06.52 -09 37 51.6 19.0   704 – Lincoln Laboratory ETS, New Mexico MPS 34582
2001 09 07.23318 21 52 05.79 -09 37 51.7 18.9   704 – Lincoln Laboratory ETS, New Mexico MPS 34582
2001 09 07.24704 21 52 05.08 -09 37 52.1 18.8   704 – Lincoln Laboratory ETS, New Mexico MPS 34582
2001 09 12.26265 21 48 35.18 -09 39 23.4 19.1   704 – Lincoln Laboratory ETS, New Mexico MPS 34582
2001 09 12.27715 21 48 34.61 -09 39 24.3 19.2   704 – Lincoln Laboratory ETS, New Mexico MPS 34582
2001 09 12.29162 21 48 34.00 -09 39 23.9 19.2   704 – Lincoln Laboratory ETS, New Mexico MPS 34582
2001 09 12.32070 21 48 32.84 -09 39 24.2 18.7   704 – Lincoln Laboratory ETS, New Mexico MPS 34583
2001 09 18.20660 21 45 16.97 -09 39 00.6 19.6   644 – Palomar Mountain/NEAT MPS 35918
2001 09 18.22846 21 45 16.29 -09 39 00.4 19.8   644 – Palomar Mountain/NEAT MPS 35918
2001 09 18.24994 21 45 15.63 -09 39 00.1 19.7   644 – Palomar Mountain/NEAT MPS 35918
2001 09 22.17894 21 43 38.44 -09 37 14.1 19.0   704 – Lincoln Laboratory ETS, New Mexico MPS 35918
2001 09 22.19310 21 43 38.05 -09 37 13.4 19.2   704 – Lincoln Laboratory ETS, New Mexico MPS 35918
2001 09 22.20726 21 43 37.79 -09 37 12.5 19.5   704 – Lincoln Laboratory ETS, New Mexico MPS 35918
2001 09 22.22142 21 43 37.50 -09 37 12.0 19.1   704 – Lincoln Laboratory ETS, New Mexico MPS 35918
2001 09 22.23558 21 43 37.11 -09 37 11.5 19.3   704 – Lincoln Laboratory ETS, New Mexico MPS 35918
2001 10 19.09361 21 45 08.34 -08 45 54.4 19.6   644 – Palomar Mountain/NEAT MPS 40258
2001 10 19.10411 21 45 08.60 -08 45 52.3 19.5   644 – Palomar Mountain/NEAT MPS 40258
2001 10 19.11481 21 45 08.87 -08 45 50.1 19.4   644 – Palomar Mountain/NEAT MPS 40258
2004 02 17.23538 10 36 53.24 +05 58 07.4 21.1 V 691 – Steward Observatory, Kitt Peak-Spacewatch MPS 100857
2004 02 17.26318 10 36 51.67 +05 58 12.5 21.7 V 691 – Steward Observatory, Kitt Peak-Spacewatch MPS 100857
2004 02 17.29264 10 36 50.07 +05 58 18.1 21.6 V 691 – Steward Observatory, Kitt Peak-Spacewatch MPS 100857
2004 02 29.25222 10 25 41.19 +06 38 47.8 20.5 V 691 – Steward Observatory, Kitt Peak-Spacewatch MPS 100857
2004 02 29.28828 10 25 39.10 +06 38 55.5 20.4 V 691 – Steward Observatory, Kitt Peak-Spacewatch MPS 100857
2004 02 29.31706 10 25 37.42 +06 39 01.7 20.0 V 691 – Steward Observatory, Kitt Peak-Spacewatch MPS 100857
2005 10 28.09417 19 57 30.60 -20 09 11.5 19.9 V G96 – Mt. Lemmon Survey MPS 147252
2005 10 28.10075 19 57 31.35 -20 09 09.4 19.0 V G96 – Mt. Lemmon Survey MPS 147252
2005 10 28.10737 19 57 31.86 -20 09 06.4 19.9 V G96 – Mt. Lemmon Survey MPS 147252
2005 10 28.11398 19 57 32.50 -20 09 03.4 19.9 V G96 – Mt. Lemmon Survey MPS 147252
2006 11 23.35024 04 12 42.84 +31 16 17.6 19.7 V G96 – Mt. Lemmon Survey MPS 188381
2006 11 23.35786 04 12 42.33 +31 16 16.1 19.8 V G96 – Mt. Lemmon Survey MPS 188381
2006 11 23.36563 04 12 41.83 +31 16 14.8 19.7 V G96 – Mt. Lemmon Survey MPS 188381
2006 11 23.37336 04 12 41.29 +31 16 13.5 19.8 V G96 – Mt. Lemmon Survey MPS 188381
2007 11 18.46817 09 49 42.49 +15 02 20.9 21.1 V G96 – Mt. Lemmon Survey MPS 228189
2007 11 18.47318 09 49 42.67 +15 02 19.5 21.3 V G96 – Mt. Lemmon Survey MPS 228189
2007 11 18.47822 09 49 42.85 +15 02 18.4 21.7 V G96 – Mt. Lemmon Survey MPS 228189
2007 11 18.48332 09 49 43.03 +15 02 17.0 21.6 V G96 – Mt. Lemmon Survey MPS 228189
2007 12 30.48655 09 56 46.24 +13 45 53.8 21.2 V G96 – Mt. Lemmon Survey MPS 232551
2007 12 30.49506 09 56 46.06 +13 45 53.6 21.1 V G96 – Mt. Lemmon Survey MPS 232551
2007 12 30.50354 09 56 45.88 +13 45 54.5 21.2 V G96 – Mt. Lemmon Survey MPS 232551
2007 12 30.51207 09 56 45.70 +13 45 54.7 21.5 V G96 – Mt. Lemmon Survey MPS 232551
2008 02 07.19388 09 29 23.56 +15 02 06.3 20.3 V 691 – Steward Observatory, Kitt Peak-Spacewatch MPS 236138
2008 02 07.21149 09 29 22.49 +15 02 09.4 20.4 V 691 – Steward Observatory, Kitt Peak-Spacewatch MPS 236138
2008 02 07.22913 09 29 21.45 +15 02 12.7 20.3 V 691 – Steward Observatory, Kitt Peak-Spacewatch MPS 236138
2008 02 11.98287 09 24 43.78 +15 15 23.6 18.6 V A50 – Andrushivka Astronomical Observatory MPS 239316
2008 02 24.25271 09 13 13.72 +15 45 48.4 20.2 V G96 – Mt. Lemmon Survey MPS 239316
2008 02 24.25826 09 13 13.40 +15 45 48.8 19.5 V G96 – Mt. Lemmon Survey MPS 239316
2008 02 24.26382 09 13 13.11 +15 45 49.5 20.2 V G96 – Mt. Lemmon Survey MPS 239316
2008 02 24.26940 09 13 12.82 +15 45 50.2 20.2 V G96 – Mt. Lemmon Survey MPS 239316
2008 03 07.21315 09 03 51.26 +16 06 21.9 21.2 V G96 – Mt. Lemmon Survey MPS 241973
2008 03 07.21925 09 03 51.01 +16 06 22.2 20.9 V G96 – Mt. Lemmon Survey MPS 241973
2008 03 07.22535 09 03 50.72 +16 06 23.4 21.0 V G96 – Mt. Lemmon Survey MPS 241973
2008 03 07.23145 09 03 50.47 +16 06 23.0 21.1 V G96 – Mt. Lemmon Survey MPS 241973
2008 03 14.22315 08 59 41.38 +16 12 58.2 21.6 V G96 – Mt. Lemmon Survey MPS 241973
2008 03 14.22912 08 59 41.24 +16 12 58.5 21.7 V G96 – Mt. Lemmon Survey MPS 241973
2008 03 14.24248 08 59 40.77 +16 12 59.0 22.0 V G96 – Mt. Lemmon Survey MPS 241973
2008 03 14.24998 08 59 40.52 +16 12 59.2 21.5 V G96 – Mt. Lemmon Survey MPS 241973
2008 03 28.14038 08 54 56.01 +16 13 11.2 21.0 V G96 – Mt. Lemmon Survey MPS 243971
2008 03 28.14736 08 54 55.98 +16 13 10.7 21.3 V G96 – Mt. Lemmon Survey MPS 243971
2008 03 28.15442 08 54 55.87 +16 13 10.3 21.3 V G96 – Mt. Lemmon Survey MPS 243971
2008 03 28.16148 08 54 55.76 +16 13 09.8 22.3 V G96 – Mt. Lemmon Survey MPS 243971
2008 04 26.19393 09 00 00.07 +15 20 42.1 22.0 V G96 – Mt. Lemmon Survey MPS 248872
2008 04 26.19961 09 00 00.25 +15 20 41.6 21.7 V G96 – Mt. Lemmon Survey MPS 248872
2008 04 26.20523 09 00 00.43 +15 20 39.9 20.9 V G96 – Mt. Lemmon Survey MPS 248872
2008 04 26.21090 09 00 00.54 +15 20 39.8 22.1 V G96 – Mt. Lemmon Survey MPS 248872
2010 10 30.27855 02 45 37.18 +27 05 23.8 19.7 V 703 – Catalina Sky Survey MPS 355047
2010 10 30.28689 02 45 36.54 +27 05 21.0 19.4 V 703 – Catalina Sky Survey MPS 355047
2010 10 30.29534 02 45 36.00 +27 05 20.1 19.3 V 703 – Catalina Sky Survey MPS 355047
2010 10 30.30376 02 45 35.56 +27 05 17.2 19.2 V 703 – Catalina Sky Survey MPS 355047
2010 11 03.38190 02 41 21.58 +26 49 44.5 19.7 V G96 – Mt. Lemmon Survey MPS 355047
2010 11 03.38939 02 41 21.08 +26 49 42.5 19.7 V G96 – Mt. Lemmon Survey MPS 355047
